Phenix City, Alabama, United States (36867)
Lat: 32.47N, Lon: 85W
Wx Zone: ALZ048
Local Info
Past Weather Observations for Yesterday

NOTE: This archive is for the closest National Weather Service station to Phenix City. Information may differ from the station used for current weather conditions.

Click here for Long-term Archive

Time Weather Temperature Dewpoint Humidity Pressure Winds Precip Visibility
23:51
Clear
79°F / 26°C 73°F / 23°C 84% 30.09 in
(1019 mb)
Calm - 10SM
22:51
Clear
81°F / 27°C 73°F / 23°C 79% 30.09 in
(1019 mb)
Calm - 10SM
21:51
Clear
82°F / 28°C 72°F / 22°C 70% 30.09 in
(1019 mb)
Calm - 10SM
20:51
Clear
86°F / 30°C 72°F / 22°C 62% 30.09 in
(1019 mb)
Calm - 10SM
19:51
Clear
90°F / 32°C 68°F / 20°C 49% 30.06 in
(1018 mb)
Calm - 10SM
18:51
Partly Cloudy
91°F / 33°C 68°F / 20°C 46% 30.06 in
(1018 mb)
NW 8.1 mph
(NW 13 kph)
- 10SM
17:51
Partly Cloudy
93°F / 34°C 66°F / 19°C 41% 30.06 in
(1018 mb)
N 6.9 mph
(N 11 kph)
- 10SM
16:51
Partly Cloudy
93°F / 34°C 66°F / 19°C 41% 30.06 in
(1018 mb)
Calm - 10SM
15:51
Partly Cloudy
93°F / 34°C 66°F / 19°C 41% 30.06 in
(1018 mb)
Calm - 10SM
14:51
Partly Cloudy
93°F / 34°C 70°F / 21°C 47% 30.09 in
(1019 mb)
SSW 5.8 mph
(SSW 9 kph)
- 10SM
13:51
Mostly Cloudy
90°F / 32°C 70°F / 21°C 52% 30.12 in
(1020 mb)
Variable 3.5 mph
(Variable 6 kph)
- 10SM
12:51
Partly Cloudy
90°F / 32°C 70°F / 21°C 52% 30.12 in
(1020 mb)
W 3.5 mph
(W 6 kph)
- 10SM
11:51
Partly Cloudy
88°F / 31°C 73°F / 23°C 62% 30.15 in
(1021 mb)
Calm - 10SM
10:51
Clear
84°F / 29°C 73°F / 23°C 70% 30.15 in
(1021 mb)
S 6.9 mph
(S 11 kph)
- 10SM
09:51
Partly Cloudy
81°F / 27°C 73°F / 23°C 79% 30.15 in
(1021 mb)
SE 3.5 mph
(SE 6 kph)
- 10SM
08:53
Partly Cloudy
79°F / 26°C 73°F / 23°C 84% 30.15 in
(1021 mb)
SSE 4.6 mph
(SSE 7 kph)
- 10SM
08:51
Mostly Cloudy
79°F / 26°C 73°F / 23°C 84% 30.15 in
(1021 mb)
SE 3.5 mph
(SE 6 kph)
- 10SM
08:02
Partly Cloudy
75°F / 24°C 73°F / 23°C 94% 30.15 in
(1021 mb)
Calm - 10SM
07:51
Clear
75°F / 24°C 73°F / 23°C 94% 30.15 in
(1021 mb)
Calm - 10SM
07:01
Partly Cloudy
73°F / 23°C 72°F / 22°C 94% 30.15 in
(1021 mb)
ESE 3.5 mph
(ESE 6 kph)
- 10SM
06:51
Clear
73°F / 23°C 72°F / 22°C 94% 30.15 in
(1021 mb)
ESE 3.5 mph
(ESE 6 kph)
- 10SM
05:51
Clear
73°F / 23°C 72°F / 22°C 94% 30.15 in
(1021 mb)
E 3.5 mph
(E 6 kph)
- 10SM
04:51
Clear
73°F / 23°C 72°F / 22°C 94% 30.15 in
(1021 mb)
Calm - 10SM
03:51
Clear
75°F / 24°C 73°F / 23°C 94% 30.12 in
(1020 mb)
Calm - 10SM
02:51
Clear
75°F / 24°C 73°F / 23°C 94% 30.12 in
(1020 mb)
Calm - 10SM
01:51
Partly Cloudy
75°F / 24°C 73°F / 23°C 94% 30.12 in
(1020 mb)
E 3.5 mph
(E 6 kph)
- 10SM
00:51
Clear
75°F / 24°C 73°F / 23°C 94% 30.12 in
(1020 mb)
E 3.5 mph
(E 6 kph)
- 10SM
Time Weather Temperature Dewpoint Humidity Pressure Winds Precip Visibility


Weather for websites

WeatherForYou.com, LLC is not responsible for any damages or problems caused by this service. Current weather conditions are obtained from the closest station including government and personal stations which may have varying degrees of accuracy. Weather forecasts are derived from the NOAA NDFD. Like all things, this site belongs to Jesus Christ... He just trusts me to maintain it. If you have any questions or comments email webmaster@weatherforyou.com

Copyright © 2014, WeatherForYou.com LLC. All rights reserved.